User: anonymous   Login
Location: Erlenbrunn
(49.1717°N, 7.6142°E)
Time: 03:46:51
(UTC+00:00)
Language:

PAINANI 1 - Orbit

View from above orbital plane
View from above orbital plane
View from above satellite
View from above satellite

Ground track
Ground track

The orbit data is extracted from the following two-line orbital elements,

1 44365U 19037A   21165.41371474  .00003629  00000-0  93570-4 0  9996
2 44365  45.0052 274.7292 0005396 207.9207 152.1393 15.41245562110307
Epoch (UTC): 14 June 2021 09:55:44
Eccentricity: 0.0005396
inclination: 45.0052°
perigee height: 439 km
apogee height: 446 km
right ascension of ascending node: 274.7292°
argument of perigee: 207.9207°
revolutions per day: 15.41245562
mean anomaly at epoch: 152.1393°
orbit number at epoch: 11030

The dashed part of the orbit path shows where the satellite is in the earth's shadow,  

DLR